Regional Weather Roundup
Issued by NWS

Home | Current Version | Previous Version | Graphics & Text | Print | Product List | Glossary On
Versions: 1 2 3 4 5 6 7 8 9 10 11 12 13 14 15 16 17 18 19 20 21 22 23 24 25 26 27 28 29 30 31 32 33 34 35 36 37 38 39 40 41 42 43 44 45 46 47 48 49 50
000
ASUS43 KDMX 281107
RWRIA

WEATHER ROUNDUP FOR IOWA
NATIONAL WEATHER SERVICE DES MOINES IA
600 AM CDT SAT MAR 28 2015

NOTE: "FAIR" INDICATES FEW OR NO CLOUDS BELOW 12,000 FEET WITH NO
SIGNIFICANT WEATHER AND/OR OBSTRUCTIONS TO VISIBILITY.

* - THESE STATIONS ARE NOT NWS STATIONS...THUS NOT UNDER NWS
QUALITY CONTROL.  THEY ALSO DO NOT REPORT WEATHER SUCH
AS PRECIPITATION OR FOG.

IAZ001>003-012>014-020>022-031>034-043>046-281200-
   NORTHWEST IOWA

CITY           SKY/WX    TMP DP  RH WIND       PRES   REMARKS
CARROLL *      CLOUDY    30  27  86 SE6       30.14S WCI  24
CHEROKEE *     CLOUDY    30  28  93 SE3       30.13S
DENISON *      CLOUDY    30  30 100 E6        30.11S WCI  24
LE MARS *      CLOUDY    32  28  86 SE7G14    30.12S WCI  26
ORANGE CITY *  CLOUDY    30  27  86 SE5       30.11S WCI  25
SHELDON *      CLOUDY    30  28  93 SE9       30.11R WCI  22
SIOUX CITY     CLOUDY    32  26  78 SE10      30.11R WCI  24
SPENCER        CLOUDY    30  25  81 E6        30.14R WCI  24
STORM LAKE *   CLOUDY    28  27  93 SE8       30.13R WCI  20
$$

IAZ055>058-069>071-079>083-090>094-281200-
   SOUTHWEST IOWA

CITY           SKY/WX    TMP DP  RH WIND       PRES   REMARKS
ATLANTIC *     CLOUDY    32  27  80 E5        30.14R WCI  27
AUDUBON *      PTCLDY    30  27  86 E5        30.14S WCI  25
CLARINDA *     CLOUDY    34  28  80 SE6       30.15S WCI  29
COUNCIL BLFS * CLOUDY    32  30  93 SE9       30.11S WCI  24
CRESTON *      CLOUDY    32  21  64 E8        30.14S WCI  25
HARLAN  *      CLOUDY    30  32 100 E5        30.17R WCI  25
LAMONI         CLOUDY    33  20  58 SE6       30.16R WCI  28
RED OAK *      CLOUDY    34  28  80 SE7       30.13S WCI  28
SHENANDOAH *   CLOUDY    34  28  80 E8        30.13S WCI  27
$$

IAZ047>049-059>061-072>074-084-281200-
   CENTRAL IOWA

CITY           SKY/WX    TMP DP  RH WIND       PRES   REMARKS
AMES           CLOUDY    27  17  66 SE3       30.18R
ANKENY *       CLOUDY    28  18  64 E5        30.19R WCI  23
CHARITON *     CLOUDY    30  16  55 SE8       30.17R WCI  23
DES MOINES     CLOUDY    32  12  43 E7        30.18R WCI  26
GRINNELL*      PTCLDY    21  14  73 E6        30.20R WCI  14
KNOXVILLE *    CLOUDY    27  14  59 SE5       30.18R WCI  21
MARSHALLTOWN   CLEAR     19  14  81 E6        30.19R WCI  11
PELLA *        MOCLDY    27  19  74 SE5       30.20R WCI  21
PERRY *        CLOUDY    32  27  80 E6        30.16S WCI  26
$$

IAZ004>006-015-016-023>025-035-036-281200-
   NORTH CENTRAL IOWA

CITY           SKY/WX    TMP DP  RH WIND       PRES   REMARKS
ALGONA *       CLOUDY    28  21  74 SE9       30.16S WCI  20
CLARION *      CLOUDY    27  19  74 SE12      30.17R WCI  16
ESTHERVILLE    CLOUDY    28  23  81 SE9       30.14R WCI  19
FORT DODGE *   CLOUDY    28  18  64 SE7       30.17R WCI  21
MASON CITY     MOCLDY    23  16  74 SE6       30.20R WCI  16
FOREST CITY *  CLOUDY    23  18  80 SE3       30.18R
IOWA FALLS *     N/A     23  18  80 SE6       30.19R WCI  16
$$

IAZ007>011-017>019-026>030-037>042-050>054-066-281200-
   NORTHEAST IOWA

CITY           SKY/WX    TMP DP  RH WIND       PRES   REMARKS
CEDAR RAPIDS   CLEAR     21  13  71 SE5       30.21R WCI  15
CHARLES CITY * CLOUDY    23  14  68 SE6       30.21R WCI  16
CLINTON *      PTCLDY    19  16  86 SE6       30.28R WCI  11
DECORAH *      CLOUDY    18   9  68 CALM      30.21R
DUBUQUE        PTCLDY    19  14  81 S7        30.23R WCI  10
MONTICELLO *   CLEAR     21  16  79 CALM      30.23R
OELWEIN *      MOCLDY    21  14  73 SE7       30.22R WCI  13
WATERLOO       CLEAR     19  15  84 E5        30.21R WCI  12
$$

IAZ064-065-067-068-078-281200-
   EAST CENTRAL IOWA

CITY           SKY/WX    TMP DP  RH WIND       PRES   REMARKS
DAVENPORT      PTCLDY    18  12  77 SE7       30.25R WCI   9
IOWA CITY      CLEAR     22  14  71 SE3       30.25R
MT. PLEASANT * PTCLDY    23  16  74 E6        30.23R WCI  16
MUSCATINE *    MOCLDY    23  16  74 CALM      30.26R
QUAD CITIES    PTCLDY    17  12  80 E6        30.26R WCI   9
$$

IAZ062-063-075>077-085>089-095>099-281200-
   SOUTHEAST IOWA

CITY           SKY/WX    TMP DP  RH WIND       PRES   REMARKS
BURLINGTON     PTCLDY    25  16  68 E6        30.24R WCI  18
FAIRFIELD *    CLOUDY    23  16  74 SE5       30.22R WCI  17
FORT MADISON * PTCLDY    27  16  63 SE6       30.24R WCI  20
KEOKUK *       MOCLDY    27  18  69 SE6       30.23R WCI  20
OSKALOOSA *      N/A     25  18  74 E6        30.21R WCI  18
CENTERVILLE *  CLOUDY    28  16  59 SE6       30.20R WCI  22
OTTUMWA        MOCLDY    24  16  71 SE6       30.20R WCI  17
WASHINGTON *   CLOUDY    23  19  86 SE6       30.23R WCI  16
$$

ABBREVIATIONS USED IN REMARKS
   TC - TEMPERATURES IN CELSIUS
  WCI - WIND CHILL INDEX
   HX - HEAT INDEX
  VSB - VISIBILITY
$$




USA.gov is the U.S. government's official web portal to all federal, state and local government web resources and services.